DW3651 Weather Reports


Display with metric or nautical units.
time (UTC)temp
F
wind
direction
speed
MPH
gust
MPH
rain 1hr
in
rain 24hr
in
rain mn
in
humidity
%
barometer
mb
20260502181525 73 234 2.0 8.0 0.00 0.00 0.00 53 1012.3
20260502181012 73 291 1.0 8.0 0.00 0.00 0.00 53 1012.5
20260502180503 74 308 4.0 8.0 0.00 0.00 0.00 53 1012.5
20260502170512 75 275 1.0 10.0 0.00 0.00 0.00 51 1012.8
20260502164006 74 169 2.0 10.0 0.00 0.00 0.00 51 1013.1
20260502163506 74 192 3.0 11.0 0.00 0.00 0.00 52 1013.3
20260502163023 74 225 7.0 13.0 0.00 0.00 0.00 51 1013.2
20260502163020 74 225 7.0 13.0 0.00 0.00 0.00 51 1013.3
20260502162508 75 246 5.0 14.0 0.00 0.00 0.00 50 1013.4
20260502162010 75 254 6.0 14.0 0.00 0.00 0.00 50 1013.4
20260502161524 75 260 3.0 10.0 0.00 0.00 0.00 50 1013.5
20260502161522 75 260 3.0 10.0 0.00 0.00 0.00 50 1013.4
20260502161009 75 271 4.0 8.0 0.00 0.00 0.00 50 1013.5
20260502160513 74 272 4.0 12.0 0.00 0.00 0.00 51 1013.6
20260502152003 74 273 4.0 11.0 0.00 0.00 0.00 51 1014.1
20260502151530 74 275 5.0 11.0 0.00 0.00 0.00 51 1014.0
20260502151503 74 275 5.0 11.0 0.00 0.00 0.00 51 1014.2
20260502151002 74 246 6.0 11.0 0.00 0.00 0.00 51 1014.3
20260502150502 74 167 7.0 13.0 0.00 0.00 0.00 50 1014.3
20260502130507 73 207 7.0 18.0 0.00 0.00 0.00 50 1015.4
20260502123507 73 215 10.0 19.0 0.00 0.00 0.00 50 1015.7
20260502123009 73 163 7.0 18.0 0.00 0.00 0.00 50 1015.7
20260502123007 73 163 7.0 18.0 0.00 0.00 0.00 50 1015.3
20260502122507 73 123 9.0 17.0 0.00 0.00 0.00 50 1015.8
20260502122010 72 114 9.0 17.0 0.00 0.00 0.00 50 1015.8
20260502121516 73 283 8.0 17.0 0.00 0.00 0.00 50 1015.5
20260502121514 73 283 8.0 17.0 0.00 0.00 0.00 50 1015.8
20260502121008 73 179 4.0 19.0 0.00 0.00 0.00 51 1015.9
20260502120507 72 156 11.0 20.0 0.00 0.00 0.00 51 1016.0
20260502115510 71 204 13.0 19.0 0.00 0.00 0.00 51 1016.0
20260502115004 72 227 11.0 18.0 0.00 0.00 0.00 51 1016.1
20260502114522 72 180 10.0 16.0 0.00 0.00 0.00 50 1015.7
20260502114510 72 180 10.0 16.0 0.00 0.00 0.00 50 1016.0
20260502114004 72 244 8.0 15.0 0.00 0.00 0.00 50 1016.1
20260502113504 71 184 6.0 15.0 0.00 0.00 0.00 50 1016.1
20260502113026 71 202 9.0 16.0 0.00 0.00 0.00 50 1015.7
20260502113005 71 169 9.0 16.0 0.00 0.00 0.00 50 1016.1
20260502112504 71 210 4.0 16.0 0.00 0.00 0.00 50 1016.2
20260502112005 71 201 8.0 19.0 0.00 0.00 0.00 50 1016.3
20260502111514 70 148 8.0 19.0 0.00 0.00 0.00 50 1016.3
20260502111512 70 148 8.0 19.0 0.00 0.00 0.00 50 1015.9
20260502111008 70 216 6.0 14.0 0.00 0.00 0.00 49 1016.4
20260502110507 70 181 7.0 14.0 0.00 0.00 0.00 49 1016.4
20260502110015 70 225 8.0 13.0 0.00 0.00 0.00 48 1016.0
20260502110012 70 225 8.0 13.0 0.00 0.00 0.00 48 1016.4
20260502105507 70 202 6.0 14.0 0.00 0.00 0.00 47 1016.4
20260502105005 70 128 7.0 14.0 0.00 0.00 0.00 47 1016.5
20260502104524 70 171 6.0 15.0 0.00 0.00 0.00 47 1016.4
20260502104006 70 170 8.0 14.0 0.00 0.00 0.00 46 1016.5
20260502103506 70 222 6.0 15.0 0.00 0.00 0.00 46 1016.5
20260502103016 70 167 9.0 15.0 0.00 0.00 0.00 46 1016.5
20260502102506 70 172 7.0 15.0 0.00 0.00 0.00 46 1016.4
20260502102007 71 205 10.0 15.0 0.00 0.00 0.00 44 1016.4
20260502101520 71 179 5.0 11.0 0.00 0.00 0.00 44 1016.2
20260502101509 71 155 5.0 11.0 0.00 0.00 0.00 44 1016.4
20260502101007 71 166 3.0 14.0 0.00 0.00 0.00 46 1016.5
20260502100507 70 212 4.0 15.0 0.00 0.00 0.00 47 1016.5
20260502091524 68 200 7.0 14.0 0.00 0.00 0.00 48 1016.5
20260502091519 68 200 7.0 14.0 0.00 0.00 0.00 48 1016.8
20260502091007 68 168 5.0 14.0 0.00 0.00 0.00 48 1016.8
20260502090503 68 179 6.0 12.0 0.00 0.00 0.00 48 1016.9
20260502071518 64 167 5.0 11.0 0.00 0.00 0.00 48 1017.1
20260502071008 63 165 6.0 11.0 0.00 0.00 0.00 48 1017.2
20260502070509 63 145 5.0 12.0 0.00 0.00 0.00 49 1017.3
20260502070037 63 141 5.0 17.0 0.00 0.00 0.00 50 1017.4
20260502070023 63 141 6.0 17.0 0.00 0.00 0.00 50 1017.0
20260502065509 62 180 7.0 17.0 0.00 0.00 0.00 50 1017.4
20260502065013 62 171 5.0 14.0 0.00 0.00 0.00 51 1017.4
20260502064521 62 227 7.0 15.0 0.00 0.00 0.00 51 1017.4
20260502064010 62 187 6.0 15.0 0.00 0.00 0.00 51 1017.4
20260502063513 61 203 5.0 11.0 0.00 0.00 0.00 52 1017.4
20260502063021 61 126 5.0 11.0 0.00 0.00 0.00 53 1017.4
20260502062506 60 176 6.0 11.0 0.00 0.00 0.00 54 1017.3
20260502062004 60 167 5.0 11.0 0.00 0.00 0.00 54 1017.3
20260502061511 60 146 7.0 11.0 0.00 0.00 0.00 54 1017.2
20260502061503 60 146 7.0 11.0 0.00 0.00 0.00 54 1016.8
20260502061005 59 167 3.0 10.0 0.00 0.00 0.00 55 1017.3
20260502060506 59 143 5.0 12.0 0.00 0.00 0.00 55 1017.3
20260502060018 59 180 5.0 12.0 0.00 0.00 0.00 55 1017.3
20260502060007 59 180 5.0 12.0 0.00 0.00 0.00 55 1017.0
20260502055503 58 131 6.0 11.0 0.00 0.00 0.00 56 1017.3
20260502055008 58 215 4.0 9.0 0.00 0.00 0.00 57 1017.4
20260502054509 57 168 4.0 9.0 0.00 0.00 0.00 57 1017.4
20260502054006 57 178 3.0 9.0 0.00 0.00 0.00 58 1017.4
20260502053505 57 138 4.0 10.0 0.00 0.00 0.00 58 1017.3
20260502053017 56 152 4.0 10.0 0.00 0.00 0.00 58 1017.4
20260502052514 56 137 4.0 10.0 0.00 0.00 0.00 59 1017.3
20260502052007 56 158 5.0 10.0 0.00 0.00 0.00 59 1017.4
20260502051519 56 145 5.0 10.0 0.00 0.00 0.00 59 1017.4
20260502051006 55 144 6.0 10.0 0.00 0.00 0.00 59 1017.3
20260502050504 55 136 5.0 9.0 0.00 0.00 0.00 60 1017.4
20260502050010 55 144 5.0 9.0 0.00 0.00 0.00 60 1017.3
20260502045503 55 126 5.0 10.0 0.00 0.00 0.00 60 1017.3
20260502045005 55 142 7.0 10.0 0.00 0.00 0.00 60 1017.2
20260502044512 55 133 7.0 9.0 0.00 0.00 0.00 60 1017.0
20260502044510 55 133 7.0 9.0 0.00 0.00 0.00 60 1017.3
20260502044005 55 137 6.0 9.0 0.00 0.00 0.00 60 1017.3
20260502043510 55 142 5.0 8.0 0.00 0.00 0.00 60 1017.4
20260502043018 55 138 4.0 8.0 0.00 0.00 0.00 60 1017.1
20260502043014 55 138 4.0 8.0 0.00 0.00 0.00 60 1017.3
20260502042508 55 138 5.0 8.0 0.00 0.00 0.00 60 1017.4
20260502042007 55 163 4.0 8.0 0.00 0.00 0.00 60 1017.4
20260502041531 55 150 4.0 8.0 0.00 0.00 0.00 59 1017.4
20260502041521 55 150 4.0 8.0 0.00 0.00 0.00 59 1017.2
20260502041008 55 138 5.0 8.0 0.00 0.00 0.00 59 1017.4
20260502040509 55 138 6.0 8.0 0.00 0.00 0.00 59 1017.5
20260502040043 55 146 5.0 8.0 0.00 0.00 0.00 59 1017.5
20260502040020 55 146 5.0 8.0 0.00 0.00 0.00 59 1017.2
20260502035503 55 136 5.0 8.0 0.00 0.00 0.00 59 1017.6
20260502035003 55 142 5.0 8.0 0.00 0.00 0.00 59 1017.6
20260502034510 55 154 5.0 8.0 0.00 0.00 0.00 59 1017.4
20260502034506 55 154 5.0 8.0 0.00 0.00 0.00 59 1017.7
20260502034007 55 178 3.0 7.0 0.00 0.00 0.00 58 1017.7
20260502033505 55 154 3.0 7.0 0.00 0.00 0.00 58 1017.7
20260502033025 55 142 3.0 8.0 0.00 0.00 0.00 58 1017.7
20260502033013 55 142 3.0 8.0 0.00 0.00 0.00 58 1017.5
20260502032506 56 141 5.0 8.0 0.00 0.00 0.00 58 1017.6
20260502032007 56 136 5.0 8.0 0.00 0.00 0.00 57 1017.7
20260502031517 56 141 4.0 8.0 0.00 0.00 0.00 57 1017.8
20260502031006 56 130 5.0 8.0 0.00 0.00 0.00 56 1017.7
20260502030510 56 144 4.0 8.0 0.00 0.00 0.00 56 1017.8
20260502030026 56 140 5.0 8.0 0.00 0.00 0.00 56 1017.8
20260502030024 56 140 5.0 8.0 0.00 0.00 0.00 56 1017.5
20260502025507 56 144 5.0 8.0 0.00 0.00 0.00 56 1017.9
20260502025016 57 170 5.0 8.0 0.00 0.00 0.00 55 1017.9
20260502024526 57 157 4.0 8.0 0.00 0.00 0.00 55 1017.9
20260502024523 57 157 4.0 8.0 0.00 0.00 0.00 55 1017.6
20260502024006 57 143 4.0 8.0 0.00 0.00 0.00 55 1017.9
20260502023503 57 145 4.0 8.0 0.00 0.00 0.00 55 1017.9
20260502023020 57 153 5.0 7.0 0.00 0.00 0.00 54 1017.9
20260502022504 57 144 5.0 8.0 0.00 0.00 0.00 54 1017.9
20260502022005 57 140 4.0 8.0 0.00 0.00 0.00 54 1017.9
20260502021511 58 187 4.0 8.0 0.00 0.00 0.00 53 1018.0
20260502021008 58 144 4.0 10.0 0.00 0.00 0.00 53 1018.0
20260502020506 58 141 6.0 10.0 0.00 0.00 0.00 53 1018.1
20260502020017 58 134 6.0 10.0 0.00 0.00 0.00 53 1018.2
20260502015509 58 138 5.0 9.0 0.00 0.00 0.00 52 1018.2
20260502015008 58 141 4.0 8.0 0.00 0.00 0.00 52 1018.3
20260502014529 58 138 5.0 9.0 0.00 0.00 0.00 52 1018.3
20260502014522 58 138 5.0 9.0 0.00 0.00 0.00 52 1018.0
20260502014006 58 134 5.0 9.0 0.00 0.00 0.00 51 1018.3
20260502013510 59 133 5.0 9.0 0.00 0.00 0.00 51 1018.4
20260502013025 59 138 5.0 9.0 0.00 0.00 0.00 51 1018.5
20260502012503 59 142 5.0 9.0 0.00 0.00 0.00 50 1018.5
20260502012006 59 142 4.0 10.0 0.00 0.00 0.00 50 1018.6
20260502011514 59 130 6.0 10.0 0.00 0.00 0.00 50 1018.7
20260502011007 59 144 5.0 8.0 0.00 0.00 0.00 50 1018.8
20260502010506 59 139 4.0 8.0 0.00 0.00 0.00 49 1018.8
20260502010016 59 148 4.0 9.0 0.00 0.00 0.00 49 1018.8
20260502005506 60 144 4.0 9.0 0.00 0.00 0.00 49 1018.9
20260502005008 60 136 5.0 9.0 0.00 0.00 0.00 49 1018.9
20260502004525 60 155 6.0 11.0 0.00 0.00 0.00 48 1018.9
20260502004007 60 132 6.0 11.0 0.00 0.00 0.00 48 1018.9
20260502003509 60 130 6.0 10.0 0.00 0.00 0.00 48 1019.1
20260502003024 60 124 6.0 10.0 0.00 0.00 0.00 48 1019.1
20260502002513 60 140 6.0 9.0 0.00 0.00 0.00 48 1019.1
20260502002015 60 144 5.0 10.0 0.00 0.00 0.00 47 1019.2
20260502001537 61 144 5.0 10.0 0.00 0.00 0.00 47 1019.2
20260502001525 61 144 5.0 10.0 0.00 0.00 0.00 47 1018.8
20260502001006 61 142 7.0 11.0 0.00 0.00 0.00 47 1019.2
20260502000506 61 140 7.0 11.0 0.00 0.00 0.00 46 1019.3
20260502000017 61 132 7.0 10.0 0.00 0.00 0.00 46 1018.9
20260502000013 61 132 7.0 10.0 0.00 0.00 0.00 46 1019.3
20260501235508 61 130 5.0 10.0 0.00 0.00 0.00 46 1019.3
20260501235008 61 134 5.0 11.0 0.00 0.00 0.00 46 1019.4
20260501234520 61 148 6.0 11.0 0.00 0.00 0.00 46 1019.4
20260501234008 61 131 5.0 9.0 0.00 0.00 0.00 46 1019.3
20260501233506 61 128 5.0 9.0 0.00 0.00 0.00 46 1019.4
20260501233022 61 128 5.0 8.0 0.00 0.00 0.00 46 1019.4
20260501233016 61 128 5.0 8.0 0.00 0.00 0.00 46 1019.1
20260501232517 61 122 5.0 8.0 0.00 0.00 0.00 46 1019.5
20260501232009 61 131 5.0 8.0 0.00 0.00 0.00 46 1019.5
20260501231529 61 138 4.0 7.0 0.00 0.00 0.00 46 1019.5
20260501231009 61 136 3.0 8.0 0.00 0.00 0.00 46 1019.5
20260501230513 61 129 4.0 8.0 0.00 0.00 0.00 46 1019.5
20260501230008 61 124 4.0 7.0 0.00 0.00 0.00 46 1019.2
20260501225506 61 125 5.0 8.0 0.00 0.00 0.00 46 1019.6
20260501225008 62 139 4.0 8.0 0.00 0.00 0.00 46 1019.6
20260501224519 62 132 5.0 8.0 0.00 0.00 0.00 46 1019.6
20260501224507 62 132 5.0 8.0 0.00 0.00 0.00 46 1019.3
20260501224006 62 121 5.0 9.0 0.00 0.00 0.00 46 1019.7
20260501223506 62 130 5.0 9.0 0.00 0.00 0.00 46 1019.7
20260501223021 62 132 5.0 8.0 0.00 0.00 0.00 46 1019.7
20260501223006 62 132 5.0 8.0 0.00 0.00 0.00 46 1019.5
20260501222509 62 136 5.0 8.0 0.00 0.00 0.00 46 1019.8
20260501222011 62 129 5.0 7.0 0.00 0.00 0.00 46 1019.8
20260501221525 62 139 3.0 7.0 0.00 0.00 0.00 46 1019.8
20260501221504 62 141 3.0 7.0 0.00 0.00 0.00 46 1019.5
20260501221010 62 136 4.0 7.0 0.00 0.00 0.00 46 1019.9
20260501220510 62 145 3.0 7.0 0.00 0.00 0.00 46 1019.9
20260501220026 62 131 3.0 5.0 0.00 0.00 0.00 46 1019.9
20260501215510 62 134 4.0 5.0 0.00 0.00 0.00 46 1019.9
20260501215011 62 141 3.0 5.0 0.00 0.00 0.00 46 1019.9
20260501214526 62 135 3.0 5.0 0.00 0.00 0.00 46 1019.9
20260501214512 62 135 3.0 5.0 0.00 0.00 0.00 46 1019.6
20260501214007 62 138 3.0 5.0 0.00 0.00 0.00 46 1019.9
20260501213508 62 140 3.0 5.0 0.00 0.00 0.00 46 1019.9
20260501213022 63 148 3.0 5.0 0.00 0.00 0.00 46 1019.9
20260501213014 63 148 3.0 5.0 0.00 0.00 0.00 46 1019.7
20260501212509 63 142 3.0 5.0 0.00 0.00 0.00 46 1019.9
20260501212006 63 131 3.0 5.0 0.00 0.00 0.00 46 1019.8
20260501211524 64 135 3.0 5.0 0.00 0.00 0.00 45 1019.9
20260501211510 64 135 3.0 5.0 0.00 0.00 0.00 45 1019.7
20260501211014 64 137 3.0 5.0 0.00 0.00 0.00 45 1019.9
20260501210511 64 141 3.0 5.0 0.00 0.00 0.00 46 1020.0
20260501210024 64 139 3.0 4.0 0.00 0.00 0.00 45 1020.0
20260501210006 64 139 3.0 4.0 0.00 0.00 0.00 45 1019.7
20260501205510 65 132 2.0 4.0 0.00 0.00 0.00 45 1020.0
20260501205010 65 132 3.0 4.0 0.00 0.00 0.00 44 1020.0
20260501204528 65 131 2.0 4.0 0.00 0.00 0.00 44 1020.0
20260501204510 65 131 2.0 4.0 0.00 0.00 0.00 44 1019.8
20260501204012 65 132 3.0 4.0 0.00 0.00 0.00 43 1020.0
20260501203510 65 132 2.0 4.0 0.00 0.00 0.00 43 1020.1
20260501203028 66 131 2.0 4.0 0.00 0.00 0.00 43 1020.1
20260501203013 66 131 2.0 4.0 0.00 0.00 0.00 43 1019.9
20260501202508 66 131 2.0 4.0 0.00 0.00 0.00 43 1020.1
20260501202008 66 131 1.0 3.0 0.00 0.00 0.00 43 1020.1
20260501201518 67 131 1.0 3.0 0.00 0.00 0.00 42 1020.2
20260501201512 67 131 1.0 3.0 0.00 0.00 0.00 42 1019.9
20260501201015 67 131 1.0 3.0 0.00 0.00 0.00 42 1020.2
20260501200503 67 131 1.0 3.0 0.00 0.00 0.00 41 1020.2
20260501200008 67 131 2.0 5.0 0.00 0.00 0.00 41 1020.2
20260501195504 68 131 2.0 5.0 0.00 0.00 0.00 40 1020.2
20260501195005 68 131 3.0 5.0 0.00 0.00 0.00 40 1020.1
20260501194515 68 128 3.0 6.0 0.00 0.00 0.00 39 1020.1
20260501194508 68 128 3.0 6.0 0.00 0.00 0.00 39 1019.8
20260501194006 69 127 3.0 6.0 0.00 0.00 0.00 39 1020.1
20260501193503 69 124 3.0 6.0 0.00 0.00 0.00 38 1020.1
20260501193031 69 124 3.0 7.0 0.00 0.00 0.00 38 1019.8
20260501193012 69 124 3.0 7.0 0.00 0.00 0.00 38 1020.1
20260501192506 70 125 3.0 7.0 0.00 0.00 0.00 38 1020.1
20260501192010 70 130 4.0 8.0 0.00 0.00 0.00 37 1020.1
20260501191520 70 119 4.0 8.0 0.00 0.00 0.00 37 1020.1
20260501191510 70 119 4.0 8.0 0.00 0.00 0.00 37 1019.7
20260501191011 71 132 4.0 8.0 0.00 0.00 0.00 36 1020.1
20260501190507 71 125 4.0 7.0 0.00 0.00 0.00 36 1020.1
20260501190025 71 125 3.0 8.0 0.00 0.00 0.00 35 1020.1
20260501190010 71 125 3.0 8.0 0.00 0.00 0.00 35 1019.6
20260501185504 71 127 3.0 8.0 0.00 0.00 0.00 35 1020.0
20260501185003 72 136 4.0 8.0 0.00 0.00 0.00 35 1020.0
20260501184506 72 144 4.0 9.0 0.00 0.00 0.00 34 1020.0
20260501184003 72 117 4.0 9.0 0.00 0.00 0.00 34 1020.0
20260501183505 72 122 5.0 11.0 0.00 0.00 0.00 33 1020.0
20260501183011 73 127 7.0 11.0 0.00 0.00 0.00 33 1019.9
20260501183009 73 127 7.0 11.0 0.00 0.00 0.00 33 1019.6
20260501182506 73 128 7.0 12.0 0.00 0.00 0.00 33 1019.9
20260501182007 73 105 7.0 12.0 0.00 0.00 0.00 32 1019.9